Location: Klickitat County Star Party
(45.8642°N, 120.6771°W)
Time: 18:14:12
(UTC-07:00)

SO-50 - Pass Details

Date: 01 June 2019
Orbit: 586 x 700 km, 64.6° (Epoch: 17 June)

Event Time Altitude Azimuth Distance (km) Brightness Sun altitude
Rises 01:26:00 0° 321° (NW) 3,083 ? -21.9°
Reaches altitude 10° 01:28:23 10° 319° (NW) 2,154 ? -21.8°
Maximum altitude 01:33:16 69° 237° (WSW) 731 ? -21.7°
Enters shadow 01:34:01 58° 186° (S) 793 ? -21.7°
